Watertown, SD

11:39 PM CST on December 14, 2017 (GMT -0600)
Watertown Municipal

Weather History for KATY - January, 2014

Change the Weather History Date:

Tuesday, January 7, 2014

  Actual Average Record
Temperature  
Mean Temperature -4 °F 12 °F  
Max Temperature 3 °F 22 °F 49 °F (1990)
Min Temperature -12 °F 3 °F -31 °F (1912)
Degree Days  
Heating Degree Days 69 52  
Month to date heating degree days 479 364  
Since 1 July heating degree days 4077 3823  
Cooling Degree Days 0 0  
Month to date cooling degree days 0 0  
Year to date cooling degree days 0 0  
Moisture  
Dew Point -9 °F    
Average Humidity 78    
Maximum Humidity 87    
Minimum Humidity 68    
Precipitation  
Precipitation T in 0.02 in 0.26 in (1975)
Month to date precipitation T 0.12  
Year to date precipitation T 0.12  
Snow  
Snow T in - - ()
Month to date snowfall T  
Since 1 July snowfall 11.4  
Snow Depth 8.00 in    
Sea Level Pressure  
Sea Level Pressure 30.23 in    
Wind  
Wind Speed 4 mph (West)    
Max Wind Speed 10 mph    
Max Gust Speed 12 mph    
Visibility 10 miles    
Events Snow    
T = Trace of Precipitation, MM = Missing Value Source: NWS Daily Summary

Daily Weather History Graph

Daily Weather History Graph

Search for Another Location

Airport or City:

Trip Planner

Search our weather history database for the weather conditions in past years. The results will help you decide how hot, cold, wet, or windy it might be!

Date:

Astronomy

Jan. 07, 2014 Rise Set
Actual Time 8:06 AM CST 5:04 PM CST
Civil Twilight 7:32 AM CST 5:37 PM CST
Nautical Twilight 6:56 AM CST 6:14 PM CST
Astronomical Twilight 6:20 AM CST 6:49 PM CST
Moon 11:35 AM CST (1/7) No Moon Set
Length of Visible Light 10h 04m
Length of Day
8h 58m
Waxing Crescent, 46% of the Moon is Illuminated
Jan 7
Waxing Crescent
Jan 7
First Quarter
Jan 15
Full
Jan 23
Last Quarter
Jan 30
New

Hourly Weather History & Observations

Time (CST) Temp. Windchill Dew Point Humidity Pressure Visibility Wind Dir Wind Speed Gust Speed Precip Events Conditions
12:53 AM -9.0 °F -18.2 °F -15.0 °F 75% 30.20 in 10.0 mi SW 3.5 mph - N/A   Overcast
1:53 AM -8.0 °F -21.0 °F -14.1 °F 75% 30.19 in 10.0 mi WSW 5.8 mph - N/A   Overcast
2:53 AM -7.1 °F -19.9 °F -14.1 °F 72% 30.19 in 10.0 mi SW 5.8 mph - N/A   Overcast
3:53 AM -6.0 °F -16.9 °F -13.0 °F 72% 30.17 in 10.0 mi SW 4.6 mph - N/A   Overcast
4:53 AM -6.0 °F -21.5 °F -11.9 °F 75% 30.17 in 10.0 mi SSW 8.1 mph - N/A   Overcast
5:53 AM -5.1 °F -20.4 °F -11.0 °F 76% 30.16 in 10.0 mi SSW 8.1 mph - N/A   Overcast
6:53 AM -4.0 °F -12.4 °F -9.0 °F 79% 30.17 in 8.0 mi South 3.5 mph - 0.00 in Snow Light Snow
7:53 AM -4.0 °F - -8.0 °F 83% 30.17 in 9.0 mi Calm Calm - 0.00 in   Overcast
8:53 AM -2.9 °F - -7.1 °F 82% 30.19 in 10.0 mi Calm Calm - N/A   Overcast
9:53 AM -0.9 °F - -6.0 °F 79% 30.19 in 10.0 mi Calm Calm - N/A   Overcast
10:53 AM -0.0 °F -9.9 °F -5.1 °F 79% 30.20 in 10.0 mi West 4.6 mph - N/A   Partly Cloudy
11:53 AM 1.9 °F -10.6 °F -5.1 °F 72% 30.19 in 10.0 mi NW 6.9 mph - N/A   Clear
12:53 PM 1.9 °F -11.8 °F -4.0 °F 76% 30.21 in 10.0 mi WNW 8.1 mph - N/A   Clear
1:53 PM 3.0 °F -9.3 °F -4.0 °F 73% 30.20 in 10.0 mi NW 6.9 mph - N/A   Clear
2:53 PM 3.0 °F -9.3 °F -4.0 °F 73% 30.21 in 10.0 mi NW 6.9 mph - N/A   Clear
3:53 PM 1.9 °F -9.2 °F -5.1 °F 72% 30.24 in 10.0 mi NW 5.8 mph - N/A   Clear
4:53 PM 1.0 °F -8.7 °F -7.1 °F 69% 30.25 in 10.0 mi NW 4.6 mph - N/A   Clear
5:53 PM -4.0 °F -14.6 °F -8.0 °F 83% 30.29 in 10.0 mi West 4.6 mph - N/A   Clear
6:53 PM -2.9 °F -13.3 °F -8.0 °F 79% 30.30 in 10.0 mi WNW 4.6 mph - N/A   Clear
7:53 PM -6.0 °F -16.9 °F -9.0 °F 87% 30.30 in 10.0 mi WNW 4.6 mph - N/A   Clear
8:53 PM -11.0 °F -26.2 °F -14.1 °F 86% 30.32 in 10.0 mi NNW 6.9 mph - N/A   Clear
9:53 PM -8.0 °F - -11.0 °F 86% 30.32 in 10.0 mi Calm Calm - N/A   Clear
10:53 PM -7.1 °F - -11.0 °F 83% 30.33 in 10.0 mi Calm Calm - N/A   Overcast
11:53 PM -5.1 °F - -9.9 °F 80% 30.33 in 10.0 mi Calm Calm - N/A   Overcast